PVL927 KBOS-KPWM

Flight info

Callsign PVL927
Flight time 0h 28m
Altitude 9000
Route LOGAN4 PEASE ENE
Aircraft DH8D/M-SDE2E3FGRY/H

Departure

Time 2026-05-08 01:20
Airport Boston Logan International Airport (KBOS)

Arrival

Time 2026-05-08 01:49
Airport Portland International Jetport (KPWM)
Time Latitude Longitude Altitude Speed Heading
2026-05-08 01:05 42.35978 -71.01791 20 ft 0 kts
2026-05-08 01:12 42.35952 -71.01798 20 ft 5 kts 11°
2026-05-08 01:13 42.35924 -71.01807 20 ft 5 kts 36°
2026-05-08 01:13 42.35916 -71.01798 20 ft 0 kts 99°
2026-05-08 01:14 42.35916 -71.01795 20 ft 0 kts 99°
2026-05-08 01:16 42.35903 -71.01711 20 ft 23 kts 102°
2026-05-08 01:16 42.35918 -71.01538 22 ft 25 kts 28°
2026-05-08 01:16 42.36108 -71.01442 20 ft 29 kts 20°
2026-05-08 01:16 42.36297 -71.01348 20 ft 21 kts 33°
2026-05-08 01:17 42.36268 -71.01167 20 ft 22 kts 117°
2026-05-08 01:17 42.36196 -71.00954 18 ft 30 kts 114°
2026-05-08 01:17 42.36148 -71.00800 17 ft 0 kts 99°
2026-05-08 01:18 42.36148 -71.00799 17 ft 0 kts 99°
2026-05-08 01:19 42.36148 -71.00744 17 ft 10 kts 79°
2026-05-08 01:19 42.36190 -71.00664 17 ft 11 kts 31°
2026-05-08 01:19 42.36257 -71.00626 17 ft 0 kts 19°
2026-05-08 01:19 42.36299 -71.00604 17 ft 38 kts 21°
2026-05-08 01:20 42.36859 -71.00327 57 ft 120 kts 24°
2026-05-08 01:20 42.37659 -70.99761 664 ft 138 kts 22°
2026-05-08 01:20 42.38582 -70.99200 1229 ft 154 kts
2026-05-08 01:20 42.39655 -70.99255 1767 ft 163 kts 345°
2026-05-08 01:21 42.40806 -70.99508 2416 ft 175 kts 347°
2026-05-08 01:21 42.42090 -70.99778 2786 ft 201 kts 348°
2026-05-08 01:21 42.43525 -71.00096 3299 ft 214 kts 348°
2026-05-08 01:21 42.45026 -71.00440 3892 ft 223 kts 348°
2026-05-08 01:22 42.46565 -71.00803 4478 ft 230 kts 347°
2026-05-08 01:22 42.48177 -71.01187 5068 ft 237 kts 347°
2026-05-08 01:22 42.49828 -71.01580 5655 ft 243 kts 348°
2026-05-08 01:22 42.51504 -71.01987 6234 ft 248 kts 348°
2026-05-08 01:23 42.53196 -71.02402 6812 ft 253 kts 347°
2026-05-08 01:23 42.54940 -71.02811 7398 ft 256 kts 347°
2026-05-08 01:23 42.56712 -71.03209 7986 ft 259 kts 347°
2026-05-08 01:23 42.58495 -71.03474 8558 ft 265 kts 358°
2026-05-08 01:24 42.60348 -71.02980 9160 ft 273 kts 11°
2026-05-08 01:24 42.62178 -71.02284 9749 ft 275 kts 11°
2026-05-08 01:24 42.63991 -71.01572 10370 ft 276 kts 11°
2026-05-08 01:24 42.65860 -71.00825 11009 ft 278 kts 11°
2026-05-08 01:25 42.67708 -71.00078 11628 ft 282 kts 10°
2026-05-08 01:25 42.69640 -70.99297 11898 ft 299 kts 10°
2026-05-08 01:25 42.71701 -70.98463 11976 ft 318 kts 11°
2026-05-08 01:25 42.73892 -70.97566 11996 ft 335 kts 11°
2026-05-08 01:26 42.76145 -70.96637 11992 ft 346 kts 11°
2026-05-08 01:26 42.78464 -70.95674 11992 ft 350 kts 12°
2026-05-08 01:26 42.80798 -70.94701 11987 ft 349 kts 12°
2026-05-08 01:26 42.83136 -70.93727 11985 ft 348 kts 11°
2026-05-08 01:27 42.85445 -70.92766 11982 ft 343 kts 11°
2026-05-08 01:27 42.87684 -70.91833 11976 ft 339 kts 11°
2026-05-08 01:27 42.89928 -70.90897 11980 ft 334 kts 11°
2026-05-08 01:27 42.92149 -70.89970 11985 ft 332 kts 11°
2026-05-08 01:28 42.94361 -70.89048 11979 ft 331 kts 11°
2026-05-08 01:28 42.96579 -70.88122 11975 ft 330 kts 11°
2026-05-08 01:28 42.98775 -70.87204 11974 ft 328 kts 11°
2026-05-08 01:28 43.00946 -70.86295 11982 ft 327 kts 11°
2026-05-08 01:29 43.03103 -70.85392 11976 ft 326 kts 11°
2026-05-08 01:29 43.05288 -70.84476 11980 ft 326 kts 11°
2026-05-08 01:29 43.07436 -70.83576 11976 ft 325 kts 11°
2026-05-08 01:29 43.09589 -70.82490 11526 ft 329 kts 18°
2026-05-08 01:30 43.11650 -70.81188 10977 ft 333 kts 20°
2026-05-08 01:30 43.13748 -70.79838 10405 ft 334 kts 21°
2026-05-08 01:30 43.15854 -70.78479 9854 ft 327 kts 21°
2026-05-08 01:30 43.17848 -70.77190 9343 ft 314 kts 21°
2026-05-08 01:31 43.19804 -70.75932 8827 ft 303 kts 21°
2026-05-08 01:31 43.21667 -70.74734 8361 ft 288 kts 20°
2026-05-08 01:31 43.23428 -70.73604 7894 ft 275 kts 20°
2026-05-08 01:31 43.25131 -70.72515 7430 ft 267 kts 21°
2026-05-08 01:32 43.26810 -70.71439 6960 ft 260 kts 20°
2026-05-08 01:32 43.28414 -70.70406 6503 ft 255 kts 21°
2026-05-08 01:32 43.29996 -70.69390 6052 ft 249 kts 20°
2026-05-08 01:32 43.31567 -70.68382 5592 ft 245 kts 21°
2026-05-08 01:33 43.33134 -70.67378 5196 ft 255 kts 21°
2026-05-08 01:33 43.34739 -70.66345 5048 ft 254 kts 21°
2026-05-08 01:33 43.36308 -70.65335 5000 ft 248 kts 21°
2026-05-08 01:33 43.37857 -70.64339 4989 ft 243 kts 21°
2026-05-08 01:34 43.39379 -70.63361 4975 ft 238 kts 21°
2026-05-08 01:34 43.40905 -70.62385 4592 ft 251 kts 20°
2026-05-08 01:34 43.42459 -70.61159 4025 ft 269 kts 36°
2026-05-08 01:34 43.43524 -70.59046 3579 ft 265 kts 59°
2026-05-08 01:35 43.44317 -70.56800 3136 ft 256 kts 60°
2026-05-08 01:35 43.45057 -70.54672 3007 ft 240 kts 60°
2026-05-08 01:35 43.45775 -70.52605 2990 ft 241 kts 60°
2026-05-08 01:35 43.46507 -70.50517 2984 ft 241 kts 60°
2026-05-08 01:36 43.47238 -70.48447 2970 ft 241 kts 59°
2026-05-08 01:36 43.47967 -70.46390 2971 ft 241 kts 59°
2026-05-08 01:36 43.48708 -70.44312 2980 ft 240 kts 59°
2026-05-08 01:36 43.49443 -70.42251 2986 ft 240 kts 59°
2026-05-08 01:37 43.50180 -70.40189 2964 ft 241 kts 59°
2026-05-08 01:37 43.50928 -70.38104 2953 ft 240 kts 59°
2026-05-08 01:37 43.51665 -70.36047 2952 ft 239 kts 59°
2026-05-08 01:37 43.52404 -70.33989 2963 ft 238 kts 60°
2026-05-08 01:38 43.53136 -70.31946 2968 ft 238 kts 59°
2026-05-08 01:38 43.53869 -70.29903 2974 ft 243 kts 60°
2026-05-08 01:38 43.54627 -70.27785 2979 ft 247 kts 60°
2026-05-08 01:38 43.55399 -70.25623 2979 ft 250 kts 60°
2026-05-08 01:39 43.56160 -70.23492 2980 ft 253 kts 60°
2026-05-08 01:39 43.56932 -70.21325 2981 ft 255 kts 60°
2026-05-08 01:39 43.57730 -70.19087 2985 ft 256 kts 60°
2026-05-08 01:39 43.58515 -70.16885 2986 ft 256 kts 60°
2026-05-08 01:40 43.59297 -70.14688 2979 ft 256 kts 60°
2026-05-08 01:40 43.60083 -70.12483 2980 ft 254 kts 60°
2026-05-08 01:40 43.60867 -70.10279 2972 ft 252 kts 60°
2026-05-08 01:40 43.61640 -70.08105 2973 ft 251 kts 60°
2026-05-08 01:41 43.62397 -70.05973 2963 ft 248 kts 60°
2026-05-08 01:41 43.63159 -70.03809 2953 ft 246 kts 60°
2026-05-08 01:41 43.63859 -70.01687 2971 ft 245 kts 63°
2026-05-08 01:41 43.64099 -69.99355 2970 ft 250 kts 94°
2026-05-08 01:42 43.63799 -69.97009 2951 ft 246 kts 91°
2026-05-08 01:42 43.64240 -69.94813 2956 ft 233 kts 51°
2026-05-08 01:42 43.65509 -69.93596 2965 ft 218 kts 11°
2026-05-08 01:42 43.66943 -69.93823 2965 ft 209 kts 331°
2026-05-08 01:43 43.67857 -69.95317 2966 ft 209 kts 290°
2026-05-08 01:43 43.67764 -69.97322 2966 ft 217 kts 250°
2026-05-08 01:43 43.66928 -69.98921 2979 ft 191 kts 233°
2026-05-08 01:43 43.66089 -70.00188 2957 ft 175 kts 234°
2026-05-08 01:44 43.65195 -70.01572 2973 ft 200 kts 233°
2026-05-08 01:44 43.64246 -70.02949 2956 ft 197 kts 231°
2026-05-08 01:44 43.63327 -70.04302 2946 ft 187 kts 236°
2026-05-08 01:44 43.62877 -70.05853 2952 ft 163 kts 270°
2026-05-08 01:45 43.62909 -70.07338 2953 ft 148 kts 278°
2026-05-08 01:45 43.62992 -70.08815 2978 ft 165 kts 278°
2026-05-08 01:45 43.63106 -70.10516 2944 ft 191 kts 278°
2026-05-08 01:45 43.63241 -70.12472 2700 ft 217 kts 278°
2026-05-08 01:46 43.63387 -70.14568 2358 ft 217 kts 278°
2026-05-08 01:46 43.63506 -70.16546 2005 ft 195 kts 278°
2026-05-08 01:46 43.63607 -70.18308 1717 ft 177 kts 279°
2026-05-08 01:46 43.63712 -70.19934 1432 ft 157 kts 279°
2026-05-08 01:47 43.63806 -70.21327 1210 ft 137 kts 279°
2026-05-08 01:47 43.63888 -70.22543 1022 ft 120 kts 280°
2026-05-08 01:47 43.63982 -70.23695 985 ft 120 kts 281°
2026-05-08 01:48 43.64178 -70.26263 621 ft 146 kts 277°
2026-05-08 01:48 43.64241 -70.27621 263 ft 138 kts 278°
2026-05-08 01:48 43.64361 -70.28818 146 ft 120 kts 281°
2026-05-08 01:48 43.64395 -70.29829 29 ft 60 kts 274°
2026-05-08 01:49 43.64415 -70.30099 38 ft 27 kts 277°
2026-05-08 01:49 43.64469 -70.30319 46 ft 27 kts 338°
2026-05-08 01:49 43.64554 -70.30452 48 ft 19 kts 270°
2026-05-08 01:49 43.64556 -70.30512 50 ft 0 kts 274°
2026-05-08 01:50 43.64556 -70.30517 50 ft 5 kts 275°
2026-05-08 01:50 43.64574 -70.30682 53 ft 16 kts 321°
2026-05-08 01:51 43.64643 -70.30772 57 ft 8 kts 241°
2026-05-08 01:51 43.64608 -70.30884 60 ft 19 kts 276°
2026-05-08 01:51 43.64636 -70.31053 64 ft 13 kts 333°
2026-05-08 01:51 43.64671 -70.31060 64 ft 0 kts